Year,Month,Day,Hour,Minute,Value (Times are PST for temperature in C)
2011,07,22,00,00,13.30
2011,07,22,00,01,13.30
2011,07,22,00,02,13.30
2011,07,22,00,03,13.30
2011,07,22,00,04,13.30
2011,07,22,00,05,13.30
2011,07,22,00,06,13.30
2011,07,22,00,07,13.30
2011,07,22,00,08,13.30
2011,07,22,00,09,13.30
2011,07,22,00,10,13.30
2011,07,22,00,11,13.20
2011,07,22,00,12,13.20
2011,07,22,00,13,13.20
2011,07,22,00,14,13.20
2011,07,22,00,15,13.20
2011,07,22,00,16,13.20
2011,07,22,00,17,13.20
2011,07,22,00,18,13.20
2011,07,22,00,19,13.20
2011,07,22,00,20,13.20
2011,07,22,00,21,13.20
2011,07,22,00,22,13.20
2011,07,22,00,23,13.10
2011,07,22,00,24,13.10
2011,07,22,00,25,13.10
2011,07,22,00,26,13.10
2011,07,22,00,27,13.10
2011,07,22,00,28,13.10
2011,07,22,00,29,13.10
2011,07,22,00,30,13.10
2011,07,22,00,31,13.10
2011,07,22,00,32,13.10
2011,07,22,00,33,13.10
2011,07,22,00,34,13.10
2011,07,22,00,35,13.10
2011,07,22,00,36,13.10
2011,07,22,00,37,13.10
2011,07,22,00,38,13.10
2011,07,22,00,39,13.10
2011,07,22,00,40,13.00
2011,07,22,00,41,13.00
2011,07,22,00,42,13.00
2011,07,22,00,43,13.00
2011,07,22,00,44,13.00
2011,07,22,00,45,13.00
2011,07,22,00,46,13.00
2011,07,22,00,47,13.00
2011,07,22,00,48,13.00
2011,07,22,00,49,13.00
2011,07,22,00,50,13.00
2011,07,22,00,51,13.00
2011,07,22,00,52,12.90
2011,07,22,00,53,12.90
2011,07,22,00,54,12.90
2011,07,22,00,55,12.90
2011,07,22,00,56,12.90
2011,07,22,00,57,12.90
2011,07,22,00,58,12.90
2011,07,22,00,59,12.90
2011,07,22,01,00,12.90
2011,07,22,01,01,12.80
2011,07,22,01,02,12.80
2011,07,22,01,03,12.80
2011,07,22,01,04,12.80
2011,07,22,01,05,12.80
2011,07,22,01,06,12.80
2011,07,22,01,07,12.80
2011,07,22,01,08,12.80
2011,07,22,01,09,12.80
2011,07,22,01,10,12.80
2011,07,22,01,11,12.80
2011,07,22,01,12,12.80
2011,07,22,01,13,12.80
2011,07,22,01,14,12.80
2011,07,22,01,15,12.80
2011,07,22,01,16,12.70
2011,07,22,01,17,12.70
2011,07,22,01,18,12.70
2011,07,22,01,19,12.70
2011,07,22,01,20,12.80
2011,07,22,01,21,12.80
2011,07,22,01,22,12.80
2011,07,22,01,23,12.80
2011,07,22,01,24,12.80
2011,07,22,01,25,12.80
2011,07,22,01,26,12.80
2011,07,22,01,27,12.80
2011,07,22,01,28,12.80
2011,07,22,01,29,12.70
2011,07,22,01,30,12.80
2011,07,22,01,31,12.70
2011,07,22,01,32,12.70
2011,07,22,01,33,12.70
2011,07,22,01,34,12.70
2011,07,22,01,35,12.70
2011,07,22,01,36,12.70
2011,07,22,01,37,12.70
2011,07,22,01,38,12.70
2011,07,22,01,39,12.70
2011,07,22,01,40,12.70
2011,07,22,01,41,12.70
2011,07,22,01,42,12.70
2011,07,22,01,43,12.70
2011,07,22,01,44,12.70
2011,07,22,01,45,12.70
2011,07,22,01,46,12.70
2011,07,22,01,47,12.70
2011,07,22,01,48,12.70
2011,07,22,01,49,12.70
2011,07,22,01,50,12.70
2011,07,22,01,51,12.70
2011,07,22,01,52,12.70
2011,07,22,01,53,12.70
2011,07,22,01,54,12.70
2011,07,22,01,55,12.70
2011,07,22,01,56,12.70
2011,07,22,01,57,12.70
2011,07,22,01,58,12.70
2011,07,22,01,59,12.70
2011,07,22,02,00,12.70
2011,07,22,02,01,12.70
2011,07,22,02,02,12.60
2011,07,22,02,03,12.70
2011,07,22,02,04,12.70
2011,07,22,02,05,12.60
2011,07,22,02,06,12.60
2011,07,22,02,07,12.60
2011,07,22,02,08,12.60
2011,07,22,02,09,12.60
2011,07,22,02,10,12.60
2011,07,22,02,11,12.60
2011,07,22,02,12,12.50
2011,07,22,02,13,12.50
2011,07,22,02,14,12.50
2011,07,22,02,15,12.50
2011,07,22,02,16,12.50
2011,07,22,02,17,12.50
2011,07,22,02,18,12.50
2011,07,22,02,19,12.50
2011,07,22,02,20,12.50
2011,07,22,02,21,12.50
2011,07,22,02,22,12.50
2011,07,22,02,23,12.50
2011,07,22,02,24,12.50
2011,07,22,02,25,12.50
2011,07,22,02,26,12.40
2011,07,22,02,27,12.40
2011,07,22,02,28,12.40
2011,07,22,02,29,12.40
2011,07,22,02,30,12.40
2011,07,22,02,31,12.40
2011,07,22,02,32,12.40
2011,07,22,02,33,12.40
2011,07,22,02,34,12.40
2011,07,22,02,35,12.40
2011,07,22,02,36,12.40
2011,07,22,02,37,12.40
2011,07,22,02,38,12.40
2011,07,22,02,39,12.40
2011,07,22,02,40,12.40
2011,07,22,02,41,12.40
2011,07,22,02,42,12.40
2011,07,22,02,43,12.40
2011,07,22,02,44,12.40
2011,07,22,02,45,12.40
2011,07,22,02,46,12.40
2011,07,22,02,47,12.40
2011,07,22,02,48,12.40
2011,07,22,02,49,12.40
2011,07,22,02,50,12.40
2011,07,22,02,51,12.40
2011,07,22,02,52,12.40
2011,07,22,02,53,12.40
2011,07,22,02,54,12.40
2011,07,22,02,55,12.40
2011,07,22,02,56,12.40
2011,07,22,02,57,12.40
2011,07,22,02,58,12.40
2011,07,22,02,59,12.40
2011,07,22,03,00,12.40
2011,07,22,03,01,12.40
2011,07,22,03,02,12.40
2011,07,22,03,03,12.40
2011,07,22,03,04,12.40
2011,07,22,03,05,12.40
2011,07,22,03,06,12.40
2011,07,22,03,07,12.40
2011,07,22,03,08,12.40
2011,07,22,03,09,12.40
2011,07,22,03,10,12.40
2011,07,22,03,11,12.40
2011,07,22,03,12,12.40
2011,07,22,03,13,12.40
2011,07,22,03,14,12.40
2011,07,22,03,15,12.40
2011,07,22,03,16,12.40
2011,07,22,03,17,12.40
2011,07,22,03,18,12.30
2011,07,22,03,19,12.30
2011,07,22,03,20,12.30
2011,07,22,03,21,12.30
2011,07,22,03,22,12.30
2011,07,22,03,23,12.30
2011,07,22,03,24,12.30
2011,07,22,03,25,12.30
2011,07,22,03,26,12.30
2011,07,22,03,27,12.20
2011,07,22,03,28,12.20
2011,07,22,03,29,12.20
2011,07,22,03,30,12.20
2011,07,22,03,31,12.20
2011,07,22,03,32,12.20
2011,07,22,03,33,12.20
2011,07,22,03,34,12.20
2011,07,22,03,35,12.20
2011,07,22,03,36,12.20
2011,07,22,03,37,12.20
2011,07,22,03,38,12.20
2011,07,22,03,39,12.10
2011,07,22,03,40,12.10
2011,07,22,03,41,12.10
2011,07,22,03,42,12.10
2011,07,22,03,43,12.10
2011,07,22,03,44,12.00
2011,07,22,03,45,12.00
2011,07,22,03,46,12.00
2011,07,22,03,47,12.00
2011,07,22,03,48,11.90
2011,07,22,03,49,11.90
2011,07,22,03,50,11.90
2011,07,22,03,51,11.90
2011,07,22,03,52,11.90
2011,07,22,03,53,11.90
2011,07,22,03,54,11.90
2011,07,22,03,55,11.90
2011,07,22,03,56,11.90
2011,07,22,03,57,11.80
2011,07,22,03,58,11.80
2011,07,22,03,59,11.80
2011,07,22,04,00,11.80
2011,07,22,04,01,11.80
2011,07,22,04,02,11.80
2011,07,22,04,03,11.80
2011,07,22,04,05,11.80
2011,07,22,04,08,11.80
2011,07,22,04,11,11.70
2011,07,22,04,12,11.70
2011,07,22,04,13,11.70
2011,07,22,04,14,11.70
2011,07,22,04,15,11.70
2011,07,22,04,16,11.60
2011,07,22,04,17,11.60
2011,07,22,04,18,11.60
2011,07,22,04,19,11.60
2011,07,22,04,20,11.60
2011,07,22,04,21,11.60
2011,07,22,04,22,11.60
2011,07,22,04,23,11.60
2011,07,22,04,24,11.60
2011,07,22,04,25,11.60
2011,07,22,04,26,11.50
2011,07,22,04,27,11.50
2011,07,22,04,28,11.50
2011,07,22,04,29,11.50
2011,07,22,04,30,11.40
2011,07,22,04,31,11.40
2011,07,22,04,32,11.40
2011,07,22,04,33,11.40
2011,07,22,04,34,11.40
2011,07,22,04,35,11.40
2011,07,22,04,36,11.40
2011,07,22,04,37,11.30
2011,07,22,04,38,11.30
2011,07,22,04,39,11.30
2011,07,22,04,40,11.30
2011,07,22,04,41,11.30
2011,07,22,04,42,11.30
2011,07,22,04,43,11.30
2011,07,22,04,44,11.30
2011,07,22,04,45,11.20
2011,07,22,04,46,11.20
2011,07,22,04,47,11.20
2011,07,22,04,48,11.20
2011,07,22,04,49,11.20
2011,07,22,04,50,11.20
2011,07,22,04,51,11.10
2011,07,22,04,52,11.10
2011,07,22,04,53,11.10
2011,07,22,04,54,11.10
2011,07,22,04,55,11.00
2011,07,22,04,56,11.00
2011,07,22,04,57,11.00
2011,07,22,04,58,10.90
2011,07,22,04,59,10.90
2011,07,22,05,00,10.90
2011,07,22,05,01,10.80
2011,07,22,05,02,10.80
2011,07,22,05,03,10.80
2011,07,22,05,04,10.80
2011,07,22,05,05,10.80
2011,07,22,05,06,10.70
2011,07,22,05,07,10.70
2011,07,22,05,08,10.70
2011,07,22,05,09,10.70
2011,07,22,05,10,10.70
2011,07,22,05,11,10.70
2011,07,22,05,12,10.60
2011,07,22,05,13,10.60
2011,07,22,05,14,10.60
2011,07,22,05,15,10.60
2011,07,22,05,16,10.60
2011,07,22,05,17,10.60
2011,07,22,05,18,10.60
2011,07,22,05,19,10.50
2011,07,22,05,20,10.50
2011,07,22,05,21,10.50
2011,07,22,05,22,10.40
2011,07,22,05,23,10.40
2011,07,22,05,24,10.40
2011,07,22,05,25,10.40
2011,07,22,05,26,10.30
2011,07,22,05,27,10.30
2011,07,22,05,28,10.30
2011,07,22,05,29,10.20
2011,07,22,05,30,10.20
2011,07,22,05,31,10.20
2011,07,22,05,32,10.20
2011,07,22,05,33,10.10
2011,07,22,05,34,10.10
2011,07,22,05,35,10.10
2011,07,22,05,36,10.00
2011,07,22,05,37,10.00
2011,07,22,05,38,9.90
2011,07,22,05,39,9.90
2011,07,22,05,40,9.90
2011,07,22,05,41,9.80
2011,07,22,05,42,9.80
2011,07,22,05,43,9.80
2011,07,22,05,44,9.80
2011,07,22,05,45,9.70
2011,07,22,05,46,9.70
2011,07,22,05,47,9.70
2011,07,22,05,48,9.70
2011,07,22,05,49,9.70
2011,07,22,05,50,9.70
2011,07,22,05,51,9.70
2011,07,22,05,52,9.70
2011,07,22,05,53,9.60
2011,07,22,05,54,9.60
2011,07,22,05,55,9.70
2011,07,22,05,56,9.70
2011,07,22,05,57,9.70
2011,07,22,05,58,9.70
2011,07,22,05,59,9.80
2011,07,22,06,00,9.80
2011,07,22,06,01,9.80
2011,07,22,06,02,9.80
2011,07,22,06,03,9.80
2011,07,22,06,04,9.70
2011,07,22,06,05,9.70
2011,07,22,06,06,9.70
2011,07,22,06,07,9.70
2011,07,22,06,08,9.70
2011,07,22,06,09,9.70
2011,07,22,06,10,9.70
2011,07,22,06,11,9.70
2011,07,22,06,12,9.70
2011,07,22,06,13,9.70
2011,07,22,06,14,9.70
2011,07,22,06,15,9.70
2011,07,22,06,16,9.80
2011,07,22,06,17,9.80
2011,07,22,06,18,9.80
2011,07,22,06,19,9.90
2011,07,22,06,20,9.90
2011,07,22,06,21,10.00
2011,07,22,06,22,10.00
2011,07,22,06,23,10.10
2011,07,22,06,24,10.10
2011,07,22,06,25,10.20
2011,07,22,06,26,10.30
2011,07,22,06,27,10.30
2011,07,22,06,28,10.40
2011,07,22,06,29,10.40
2011,07,22,06,30,10.50
2011,07,22,06,31,10.60
2011,07,22,06,32,10.60
2011,07,22,06,33,10.60
2011,07,22,06,34,10.70
2011,07,22,06,35,10.80
2011,07,22,06,36,10.80
2011,07,22,06,37,10.90
2011,07,22,06,38,11.00
2011,07,22,06,39,11.10
2011,07,22,06,40,11.20
2011,07,22,06,41,11.30
2011,07,22,06,42,11.40
2011,07,22,06,43,11.40
2011,07,22,06,44,11.50
2011,07,22,06,45,11.60
2011,07,22,06,46,11.70
2011,07,22,06,47,11.80
2011,07,22,06,48,11.90
2011,07,22,06,49,12.00
2011,07,22,06,50,12.10
2011,07,22,06,51,12.20
2011,07,22,06,52,12.30
2011,07,22,06,53,12.30
2011,07,22,06,54,12.40
2011,07,22,06,55,12.50
2011,07,22,06,56,12.60
2011,07,22,06,57,12.60
2011,07,22,06,58,12.70
2011,07,22,06,59,12.80
2011,07,22,07,00,12.90
2011,07,22,07,01,12.90
2011,07,22,07,02,13.00
2011,07,22,07,03,13.00
2011,07,22,07,04,13.10
2011,07,22,07,05,13.10
2011,07,22,07,06,13.10
2011,07,22,07,07,13.10
2011,07,22,07,08,13.20
2011,07,22,07,09,13.20
2011,07,22,07,10,13.20
2011,07,22,07,11,13.30
2011,07,22,07,12,13.30
2011,07,22,07,13,13.40
2011,07,22,07,14,13.40
2011,07,22,07,15,13.50
2011,07,22,07,16,13.60
2011,07,22,07,17,13.60
2011,07,22,07,18,13.70
2011,07,22,07,19,13.70
2011,07,22,07,20,13.70
2011,07,22,07,21,13.80
2011,07,22,07,22,13.80
2011,07,22,07,23,13.80
2011,07,22,07,24,13.80
2011,07,22,07,25,13.70
2011,07,22,07,26,13.70
2011,07,22,07,27,13.70
2011,07,22,07,28,13.60
2011,07,22,07,29,13.60
2011,07,22,07,30,13.60
2011,07,22,07,31,13.50
2011,07,22,07,32,13.50
2011,07,22,07,33,13.40
2011,07,22,07,34,13.40
2011,07,22,07,35,13.40
2011,07,22,07,36,13.40
2011,07,22,07,37,13.40
2011,07,22,07,38,13.40
2011,07,22,07,39,13.40
2011,07,22,07,40,13.40
2011,07,22,07,41,13.50
2011,07,22,07,42,13.60
2011,07,22,07,43,13.60
2011,07,22,07,44,13.70
2011,07,22,07,45,13.80
2011,07,22,07,46,13.80
2011,07,22,07,47,13.90
2011,07,22,07,48,14.00
2011,07,22,07,49,14.10
2011,07,22,07,50,14.10
2011,07,22,07,51,14.20
2011,07,22,07,52,14.30
2011,07,22,07,53,14.30
2011,07,22,07,54,14.40
2011,07,22,07,55,14.40
2011,07,22,07,56,14.50
2011,07,22,07,57,14.50
2011,07,22,07,58,14.60
2011,07,22,07,59,14.60
2011,07,22,08,00,14.70
2011,07,22,08,01,14.70
2011,07,22,08,02,14.80
2011,07,22,08,03,14.80
2011,07,22,08,04,14.80
2011,07,22,08,05,14.90
2011,07,22,08,06,14.90
2011,07,22,08,07,15.00
2011,07,22,08,08,15.00
2011,07,22,08,09,15.00
2011,07,22,08,10,15.00
2011,07,22,08,11,15.00
2011,07,22,08,12,15.00
2011,07,22,08,13,15.00
2011,07,22,08,14,15.00
2011,07,22,08,15,15.10
2011,07,22,08,16,15.10
2011,07,22,08,17,15.10
2011,07,22,08,18,15.20
2011,07,22,08,19,15.30
2011,07,22,08,20,15.30
2011,07,22,08,21,15.40
2011,07,22,08,22,15.50
2011,07,22,08,23,15.50
2011,07,22,08,24,15.60
2011,07,22,08,25,15.60
2011,07,22,08,26,15.60
2011,07,22,08,27,15.70
2011,07,22,08,28,15.70
2011,07,22,08,29,15.70
2011,07,22,08,30,15.80
2011,07,22,08,31,15.80
2011,07,22,08,32,15.80
2011,07,22,08,33,15.80
2011,07,22,08,34,15.90
2011,07,22,08,35,15.90
2011,07,22,08,36,15.90
2011,07,22,08,37,16.00
2011,07,22,08,38,16.00
2011,07,22,08,39,16.10
2011,07,22,08,40,16.10
2011,07,22,08,41,16.10
2011,07,22,08,42,16.10
2011,07,22,08,43,16.20
2011,07,22,08,44,16.20
2011,07,22,08,45,16.20
2011,07,22,08,46,16.20
2011,07,22,08,47,16.20
2011,07,22,08,48,16.20
2011,07,22,08,49,16.30
2011,07,22,08,50,16.30
2011,07,22,08,51,16.30
2011,07,22,08,52,16.30
2011,07,22,08,53,16.30
2011,07,22,08,54,16.30
2011,07,22,08,55,16.30
2011,07,22,08,56,16.30
2011,07,22,08,57,16.20
2011,07,22,08,58,16.20
2011,07,22,08,59,16.20
2011,07,22,09,00,16.20
2011,07,22,09,01,16.10
2011,07,22,09,02,16.10
2011,07,22,09,03,16.10
2011,07,22,09,04,16.20
2011,07,22,09,05,16.20
2011,07,22,09,06,16.30
2011,07,22,09,07,16.30
2011,07,22,09,08,16.40
2011,07,22,09,09,16.50
2011,07,22,09,10,16.60
2011,07,22,09,11,16.60
2011,07,22,09,12,16.70
2011,07,22,09,13,16.70
2011,07,22,09,14,16.80
2011,07,22,09,15,16.80
2011,07,22,09,16,16.80
2011,07,22,09,17,16.90
2011,07,22,09,18,16.90
2011,07,22,09,19,16.90
2011,07,22,09,20,16.90
2011,07,22,09,21,17.00
2011,07,22,09,22,17.10
2011,07,22,09,23,17.10
2011,07,22,09,24,17.10
2011,07,22,09,25,17.00
2011,07,22,09,26,17.00
2011,07,22,09,27,17.00
2011,07,22,09,28,17.10
2011,07,22,09,29,17.10
2011,07,22,09,30,17.20
2011,07,22,09,31,17.30
2011,07,22,09,32,17.30
2011,07,22,09,33,17.30
2011,07,22,09,34,17.40
2011,07,22,09,35,17.40
2011,07,22,09,36,17.40
2011,07,22,09,37,17.40
2011,07,22,09,38,17.40
2011,07,22,09,39,17.40
2011,07,22,09,40,17.40
2011,07,22,09,41,17.40
2011,07,22,09,42,17.40
2011,07,22,09,43,17.50
2011,07,22,09,44,17.50
2011,07,22,09,45,17.60
2011,07,22,09,46,17.60
2011,07,22,09,47,17.60
2011,07,22,09,48,17.50
2011,07,22,09,49,17.50
2011,07,22,09,50,17.50
2011,07,22,09,51,17.60
2011,07,22,09,52,17.60
2011,07,22,09,53,17.70
2011,07,22,09,54,17.70
2011,07,22,09,55,17.80
2011,07,22,09,56,17.80
2011,07,22,09,57,17.90
2011,07,22,09,58,17.90
2011,07,22,09,59,17.90
2011,07,22,10,00,17.90
2011,07,22,10,01,18.00
2011,07,22,10,02,18.00
2011,07,22,10,03,18.00
2011,07,22,10,04,18.00
2011,07,22,10,05,18.00
2011,07,22,10,06,17.90
2011,07,22,10,07,17.80
2011,07,22,10,08,17.80
2011,07,22,10,09,17.80
2011,07,22,10,10,17.80
2011,07,22,10,11,17.90
2011,07,22,10,12,17.90
2011,07,22,10,13,17.80
2011,07,22,10,14,17.70
2011,07,22,10,15,17.60
2011,07,22,10,16,17.60
2011,07,22,10,17,17.60
2011,07,22,10,18,17.60
2011,07,22,10,19,17.60
2011,07,22,10,20,17.60
2011,07,22,10,21,17.70
2011,07,22,10,22,17.80
2011,07,22,10,23,17.90
2011,07,22,10,24,17.90
2011,07,22,10,25,18.00
2011,07,22,10,26,18.00
2011,07,22,10,27,18.10
2011,07,22,10,28,18.10
2011,07,22,10,29,18.10
2011,07,22,10,30,18.10
2011,07,22,10,31,18.10
2011,07,22,10,32,18.10
2011,07,22,10,33,18.00
2011,07,22,10,34,18.00
2011,07,22,10,35,18.00
2011,07,22,10,36,18.00
2011,07,22,10,37,18.00
2011,07,22,10,38,18.10
2011,07,22,10,39,18.10
2011,07,22,10,40,18.10
2011,07,22,10,41,18.10
2011,07,22,10,42,18.10
2011,07,22,10,43,18.10
2011,07,22,10,44,18.10
2011,07,22,10,45,18.10
2011,07,22,10,46,18.10
2011,07,22,10,47,18.10
2011,07,22,10,48,18.10
2011,07,22,10,49,18.10
2011,07,22,10,50,18.10
2011,07,22,10,51,18.10
2011,07,22,10,52,18.10
2011,07,22,10,53,18.00
2011,07,22,10,54,18.00
2011,07,22,10,55,18.00
2011,07,22,10,56,18.10
2011,07,22,10,57,18.10
2011,07,22,10,58,18.20
2011,07,22,10,59,18.20
2011,07,22,11,00,18.20
2011,07,22,11,01,18.20
2011,07,22,11,02,18.20
2011,07,22,11,03,18.10
2011,07,22,11,04,18.10
2011,07,22,11,05,18.10
2011,07,22,11,06,18.10
2011,07,22,11,07,18.10
2011,07,22,11,08,18.20
2011,07,22,11,09,18.20
2011,07,22,11,10,18.20
2011,07,22,11,11,18.20
2011,07,22,11,12,18.30
2011,07,22,11,13,18.30
2011,07,22,11,14,18.40
2011,07,22,11,15,18.40
2011,07,22,11,16,18.40
2011,07,22,11,17,18.30
2011,07,22,11,18,18.20
2011,07,22,11,19,18.10
2011,07,22,11,20,18.10
2011,07,22,11,21,18.10
2011,07,22,11,22,18.10
2011,07,22,11,23,18.20
2011,07,22,11,24,18.20
2011,07,22,11,25,18.20
2011,07,22,11,26,18.20
2011,07,22,11,27,18.30
2011,07,22,11,28,18.30
2011,07,22,11,29,18.30
2011,07,22,11,30,18.20
2011,07,22,11,31,18.20
2011,07,22,11,32,18.20
2011,07,22,11,33,18.20
2011,07,22,11,34,18.10
2011,07,22,11,35,18.00
2011,07,22,11,36,18.00
2011,07,22,11,37,17.90
2011,07,22,11,38,17.90
2011,07,22,11,39,17.90
2011,07,22,11,40,17.90
2011,07,22,11,41,17.90
2011,07,22,11,42,17.90
2011,07,22,11,43,17.90
2011,07,22,11,44,18.00
2011,07,22,11,45,18.00
2011,07,22,11,46,18.00
2011,07,22,11,47,18.10
2011,07,22,11,48,18.10
2011,07,22,11,49,18.20
2011,07,22,11,50,18.30
2011,07,22,11,51,18.30
2011,07,22,11,52,18.30
2011,07,22,11,53,18.30
2011,07,22,11,54,18.30
2011,07,22,11,55,18.30
2011,07,22,11,56,18.40
2011,07,22,11,57,18.50
2011,07,22,11,58,18.50
2011,07,22,11,59,18.60
2011,07,22,12,00,18.50
2011,07,22,12,01,18.50
2011,07,22,12,02,18.60
2011,07,22,12,03,18.60
2011,07,22,12,04,18.70
2011,07,22,12,05,18.70
2011,07,22,12,06,18.70
2011,07,22,12,07,18.80
2011,07,22,12,08,18.90
2011,07,22,12,09,18.90
2011,07,22,12,10,18.90
2011,07,22,12,11,18.90
2011,07,22,12,12,18.90
2011,07,22,12,13,19.00
2011,07,22,12,14,19.10
2011,07,22,12,15,19.20
2011,07,22,12,16,19.20
2011,07,22,12,17,19.20
2011,07,22,12,18,19.20
2011,07,22,12,19,19.20
2011,07,22,12,20,19.20
2011,07,22,12,21,19.20
2011,07,22,12,22,19.20
2011,07,22,12,23,19.10
2011,07,22,12,24,19.00
2011,07,22,12,25,18.90
2011,07,22,12,26,18.90
2011,07,22,12,27,18.80
2011,07,22,12,28,18.80
2011,07,22,12,29,18.70
2011,07,22,12,30,18.70
2011,07,22,12,31,18.60
2011,07,22,12,32,18.60
2011,07,22,12,33,18.50
2011,07,22,12,34,18.50
2011,07,22,12,35,18.50
2011,07,22,12,36,18.50
2011,07,22,12,37,18.40
2011,07,22,12,38,18.40
2011,07,22,12,39,18.40
2011,07,22,12,40,18.40
2011,07,22,12,41,18.40
2011,07,22,12,42,18.50
2011,07,22,12,43,18.60
2011,07,22,12,44,18.70
2011,07,22,12,45,18.80
2011,07,22,12,46,18.80
2011,07,22,12,47,18.80
2011,07,22,12,48,18.90
2011,07,22,12,49,18.90
2011,07,22,12,50,19.00
2011,07,22,12,51,19.00
2011,07,22,12,52,19.10
2011,07,22,12,53,19.10
2011,07,22,12,54,19.10
2011,07,22,12,55,19.00
2011,07,22,12,56,19.00
2011,07,22,12,57,19.00
2011,07,22,12,58,19.10
2011,07,22,12,59,19.00
2011,07,22,13,00,19.00
2011,07,22,13,01,19.00
2011,07,22,13,02,19.10
2011,07,22,13,03,19.10
2011,07,22,13,04,19.00
2011,07,22,13,05,18.90
2011,07,22,13,06,19.00
2011,07,22,13,07,19.00
2011,07,22,13,08,19.10
2011,07,22,13,09,19.10
2011,07,22,13,10,19.20
2011,07,22,13,11,19.10
2011,07,22,13,12,19.10
2011,07,22,13,13,19.10
2011,07,22,13,14,19.10
2011,07,22,13,15,19.10
2011,07,22,13,16,19.20
2011,07,22,13,17,19.20
2011,07,22,13,18,19.10
2011,07,22,13,19,19.00
2011,07,22,13,20,18.90
2011,07,22,13,21,18.90
2011,07,22,13,22,18.80
2011,07,22,13,23,18.90
2011,07,22,13,24,18.90
2011,07,22,13,25,18.80
2011,07,22,13,26,18.80
2011,07,22,13,27,18.70
2011,07,22,13,28,18.70
2011,07,22,13,29,18.60
2011,07,22,13,30,18.60
2011,07,22,13,31,18.50
2011,07,22,13,32,18.50
2011,07,22,13,33,18.40
2011,07,22,13,34,18.40
2011,07,22,13,35,18.40
2011,07,22,13,36,18.40
2011,07,22,13,37,18.40
2011,07,22,13,38,18.50
2011,07,22,13,39,18.50
2011,07,22,13,40,18.50
2011,07,22,13,41,18.60
2011,07,22,13,42,18.60
2011,07,22,13,43,18.60
2011,07,22,13,44,18.60
2011,07,22,13,45,18.70
2011,07,22,13,46,18.70
2011,07,22,13,47,18.70
2011,07,22,13,48,18.70
2011,07,22,13,49,18.60
2011,07,22,13,50,18.50
2011,07,22,13,51,18.50
2011,07,22,13,52,18.40
2011,07,22,13,53,18.40
2011,07,22,13,54,18.40
2011,07,22,13,55,18.30
2011,07,22,13,56,18.30
2011,07,22,13,57,18.20
2011,07,22,13,58,18.10
2011,07,22,13,59,18.00
2011,07,22,14,00,18.00
2011,07,22,14,01,18.00
2011,07,22,14,02,17.80
2011,07,22,14,03,17.80
2011,07,22,14,04,17.70
2011,07,22,14,05,17.60
2011,07,22,14,06,17.60
2011,07,22,14,07,17.70
2011,07,22,14,08,17.70
2011,07,22,14,09,17.80
2011,07,22,14,10,17.90
2011,07,22,14,11,17.90
2011,07,22,14,12,17.90
2011,07,22,14,13,18.00
2011,07,22,14,14,18.00
2011,07,22,14,15,18.10
2011,07,22,14,16,18.10
2011,07,22,14,17,18.10
2011,07,22,14,18,18.20
2011,07,22,14,19,18.20
2011,07,22,14,20,18.20
2011,07,22,14,21,18.20
2011,07,22,14,22,18.20
2011,07,22,14,23,18.20
2011,07,22,14,24,18.10
2011,07,22,14,25,18.10
2011,07,22,14,26,18.00
2011,07,22,14,27,17.90
2011,07,22,14,28,17.80
2011,07,22,14,29,17.70
2011,07,22,14,30,17.60
2011,07,22,14,31,17.50
2011,07,22,14,32,17.60
2011,07,22,14,33,17.60
2011,07,22,14,34,17.80
2011,07,22,14,35,17.90
2011,07,22,14,36,18.00
2011,07,22,14,37,18.10
2011,07,22,14,38,18.20
2011,07,22,14,39,18.30
2011,07,22,14,40,18.50
2011,07,22,14,41,18.60
2011,07,22,14,42,18.80
2011,07,22,14,43,18.90
2011,07,22,14,44,19.00
2011,07,22,14,45,19.00
2011,07,22,14,46,19.00
2011,07,22,14,47,19.00
2011,07,22,14,48,18.90
2011,07,22,14,49,18.90
2011,07,22,14,50,18.80
2011,07,22,14,51,18.70
2011,07,22,14,52,18.70
2011,07,22,14,53,18.70
2011,07,22,14,54,18.70
2011,07,22,14,55,18.80
2011,07,22,14,56,18.90
2011,07,22,14,57,19.00
2011,07,22,14,58,19.20
2011,07,22,14,59,19.30
2011,07,22,15,00,19.50
2011,07,22,15,01,19.60
2011,07,22,15,02,19.70
2011,07,22,15,03,19.70
2011,07,22,15,04,19.70
2011,07,22,15,05,19.70
2011,07,22,15,06,19.70
2011,07,22,15,07,19.60
2011,07,22,15,08,19.50
2011,07,22,15,09,19.50
2011,07,22,15,10,19.50
2011,07,22,15,11,19.50
2011,07,22,15,12,19.50
2011,07,22,15,13,19.40
2011,07,22,15,14,19.30
2011,07,22,15,15,19.20
2011,07,22,15,16,19.20
2011,07,22,15,17,19.20
2011,07,22,15,18,19.10
2011,07,22,15,19,19.00
2011,07,22,15,20,18.90
2011,07,22,15,21,18.90
2011,07,22,15,22,18.80
2011,07,22,15,23,18.90
2011,07,22,15,24,19.00
2011,07,22,15,25,19.00
2011,07,22,15,26,19.00
2011,07,22,15,27,18.80
2011,07,22,15,28,18.60
2011,07,22,15,29,18.40
2011,07,22,15,30,18.30
2011,07,22,15,31,18.20
2011,07,22,15,32,18.30
2011,07,22,15,33,18.30
2011,07,22,15,34,18.30
2011,07,22,15,35,18.30
2011,07,22,15,36,18.20
2011,07,22,15,37,18.10
2011,07,22,15,38,18.00
2011,07,22,15,39,17.90
2011,07,22,15,40,17.70
2011,07,22,15,41,17.60
2011,07,22,15,42,17.50
2011,07,22,15,43,17.40
2011,07,22,15,44,17.20
2011,07,22,15,45,17.10
2011,07,22,15,46,17.00
2011,07,22,15,47,17.00
2011,07,22,15,48,16.90
2011,07,22,15,49,16.90
2011,07,22,15,50,16.90
2011,07,22,15,51,16.80
2011,07,22,15,52,16.80
2011,07,22,15,53,16.90
2011,07,22,15,54,16.90
2011,07,22,15,55,16.90
2011,07,22,15,56,16.90
2011,07,22,15,57,16.90
2011,07,22,15,58,17.00
2011,07,22,15,59,17.10
2011,07,22,16,00,17.20
2011,07,22,16,01,17.20
2011,07,22,16,02,17.30
2011,07,22,16,03,17.40
2011,07,22,16,04,17.40
2011,07,22,16,05,17.40
2011,07,22,16,06,17.40
2011,07,22,16,07,17.40
2011,07,22,16,08,17.40
2011,07,22,16,09,17.40
2011,07,22,16,10,17.30
2011,07,22,16,11,17.30
2011,07,22,16,12,17.30
2011,07,22,16,13,17.30
2011,07,22,16,14,17.20
2011,07,22,16,15,17.10
2011,07,22,16,16,17.10
2011,07,22,16,17,17.00
2011,07,22,16,18,17.00
2011,07,22,16,19,17.00
2011,07,22,16,20,16.90
2011,07,22,16,21,16.90
2011,07,22,16,22,16.90
2011,07,22,16,23,17.00
2011,07,22,16,24,17.10
2011,07,22,16,25,17.10
2011,07,22,16,26,17.20
2011,07,22,16,27,17.20
2011,07,22,16,28,17.30
2011,07,22,16,29,17.30
2011,07,22,16,30,17.30
2011,07,22,16,31,17.30
2011,07,22,16,32,17.40
2011,07,22,16,33,17.40
2011,07,22,16,34,17.50
2011,07,22,16,35,17.60
2011,07,22,16,36,17.70
2011,07,22,16,37,17.70
2011,07,22,16,38,17.70
2011,07,22,16,39,17.80
2011,07,22,16,40,17.90
2011,07,22,16,41,17.90
2011,07,22,16,42,18.00
2011,07,22,16,43,18.10
2011,07,22,16,44,18.10
2011,07,22,16,45,18.10
2011,07,22,16,46,18.20
2011,07,22,16,47,18.10
2011,07,22,16,48,18.10
2011,07,22,16,49,18.00
2011,07,22,16,50,18.00
2011,07,22,16,51,18.10
2011,07,22,16,52,18.10
2011,07,22,16,53,18.00
2011,07,22,16,54,18.00
2011,07,22,16,55,17.90
2011,07,22,16,56,17.80
2011,07,22,16,57,17.80
2011,07,22,16,58,17.70
2011,07,22,16,59,17.80
2011,07,22,17,00,17.70
2011,07,22,17,01,17.70
2011,07,22,17,02,17.80
2011,07,22,17,03,17.80
2011,07,22,17,04,17.80
2011,07,22,17,05,17.80
2011,07,22,17,06,17.80
2011,07,22,17,07,17.70
2011,07,22,17,08,17.70
2011,07,22,17,09,17.60
2011,07,22,17,10,17.50
2011,07,22,17,11,17.50
2011,07,22,17,12,17.50
2011,07,22,17,13,17.50
2011,07,22,17,14,17.50
2011,07,22,17,15,17.50
2011,07,22,17,16,17.60
2011,07,22,17,17,17.60
2011,07,22,17,18,17.70
2011,07,22,17,19,17.80
2011,07,22,17,20,17.80
2011,07,22,17,21,17.70
2011,07,22,17,22,17.60
2011,07,22,17,23,17.50
2011,07,22,17,24,17.40
2011,07,22,17,25,17.30
2011,07,22,17,26,17.20